Back to catalog

DELTA 1 DEB

AliveSSO
NORAD 12216·DEBRIS·🇺🇸 United States

Launched Mar 5, 1978 from Vandenberg Space Force Base

Loading…

Next Passes (next 24 hours)

TLE

FreshSource: Space-Track

Epoch: Sep 14, 2026, 06:40 UTC

1 12216U 78026BH  26257.27829227  .00000920  00000-0  54889-3 0  9994
2 12216  99.1119  17.0127 0181997 237.5677 120.7773 14.01916138306329

Track DELTA 1 DEB in real time with AllMySat

Download on the App Store